Regional Weather Roundup
Issued by NWS

Home | Current Version | Previous Version | Graphics & Text | Print | Product List | Glossary On
Versions: 1 2 3 4 5 6 7 8 9 10 11 12 13 14 15 16 17 18 19 20 21 22 23 24 25 26 27 28 29 30 31 32 33 34 35 36 37 38 39 40 41 42 43 44 45 46 47 48 49 50
662
ASUS43 KBIS 100710
RWRND

NORTH DAKOTA REGIONAL WEATHER ROUNDUP
NATIONAL WEATHER SERVICE BISMARCK ND
100 AM CST SAT DEC 10 2016

NOTE: "FAIR" INDICATES FEW OR NO CLOUDS BELOW 12,000 FEET WITH NO
SIGNIFICANT WEATHER AND/OR OBSTRUCTIONS TO VISIBILITY.


NDZ001>003-009>011-017-100800-
NORTHWEST NORTH DAKOTA

CITY           SKY/WX    TMP DP  RH WIND       PRES   REMARKS
WILLISTON      CLOUDY   -15 -20  78 CALM      30.41F
MINOT          CLOUDY   -16 -21  78 CALM      30.44F
MINOT AFB      CLOUDY   -22 -28  73 CALM      30.44F
$$

NDZ018>021-031>035-040>046-100800-
SOUTHWEST NORTH DAKOTA

CITY           SKY/WX    TMP DP  RH WIND       PRES   REMARKS
BISMARCK       CLOUDY   -15 -19  82 NE3       30.48F
DICKINSON      CLOUDY   -14 -18  82 SE6       30.30F WCI -28
GARRISON         N/A    -19 -24  77 CALM      30.43F
HETTINGER ARPT CLOUDY    -7 -11  83 SE6       30.32F WCI -20
$$

NDZ004>008-012>016-024-026-027-054-100800-
NORTHEAST NORTH DAKOTA

CITY           SKY/WX    TMP DP  RH WIND       PRES   REMARKS
GRAND FORKS    CLOUDY    -3  -8  79 NW8       30.55F WCI -18
GRND FRKS AFB  CLOUDY    -4 -10  73 N8        30.54F WCI -19
DEVILS LAKE    CLOUDY   -15 -19  82 NW5       30.50S WCI -27
$$

NDZ022-023-025-028>030-036>039-047>053-100800-
SOUTHEAST NORTH DAKOTA

CITY           SKY/WX    TMP DP  RH WIND       PRES   REMARKS
FARGO          MOCLDY    -7 -14  71 NW7       30.56F WCI -21
JAMESTOWN      CLOUDY   -14 -18  82 NW7       30.49F WCI -30
$$





USA.gov is the U.S. government's official web portal to all federal, state and local government web resources and services.